Timeline UpdatesTrip UpdatesNews PostsPvt PostsTravel TipsAdmin PostsConv PostsFollowed PostsChat RequestsBlog PostsPNR Posts

Disclaimer
Search
 
 
Sun Aug 31, 2014 15:47:09 ISTHomeTrainsΣChainsAtlasPNRForumGalleryNewsFAQTripsMembersLoginFeedback
No Recent News for this Train
Other Trains in the News **new
Latest...
(Slip Coach from Gorakhpur to Kolhapur Run with 15018 L.t.t Exp.deattched at BSL. Coach attached @ Bhusaval on 11040 From BSL To KOP)& Loco reversal @ Allahabad,Daund & Pune.;
Sun Oct 02, 2011 (08:15PM)
⇐ Return Journey: Train# 11039-Slip

15018-Slip/Gorakhpur - Kolhapur Express Slip

Jul 08 2013 (2:39PM)
Change Departure Station:
Change Arrival Station:
Post a Train Travel TipPost a Train Travel Tip **new
Post a Comment/Question/Picture/VideoPost a Comment/Question/Picture/Video
Pantry/Catering
✕ NO Pantry Car
✓ Catering Avbl
Loco/Rake Reversals
DD/Daund Junction (7); PUNE/Pune Junction (6); ALD/Allahabad Junction (10);
RSA - Rake Sharing
Rake/Coach Composition
S1 ,S2 ;;S2 As per PNR Entry --->>http://indiarailinfo.com/pnr/post/359961
Loco
GKP-ET: ET WDM-3A/3D (Twins) ET-BSL: BSL WAP-4 BSL-KOP: PUNE/GTL WDM-3D
News    PNR    Forum    Time-Table    Availability    Fare Chart    Map    Arr/Dep History    Trips    Gallery    ΣChains    X/O    Timeline    
Travel Time: 40h 20m    54 halts    Distance: 1530 km    Avg Speed: 37 km/hr
Type: Mail/Express
Zone: NER/North Eastern
Departs @ 20:25 (Avg 51m late)
Platform# ???
SMTWTFS
Maihar/MYR 
Arrives @ 12:45 +2 nights
Platform# 3
SMTWTFS
Kolhapur CSMT/KOP 

54 halts. 192 intermediate Stations between Maihar and Kolhapur CSMT

Show ALL intermediate Stations  Show Old Time-Table

#CodeStation NameX/OArrivesAvgDepartsAvgHaltPFDay#KmSpeedElevZoneAddress
1GKPGorakhpur Junction (10)  -05:30+0--1-577.56984mNERGorakhpur 273001, Uttar Pradesh
2DEOSDeoria Sadar (3)  06:13+4006:15+452m--1-528.43179mNERDeoria- 274001, Uttar Pradesh
3BTTBhatni Junction (5)  06:55+3207:00+335m--1-507.64773mNERDeoria, Uttar Pradesh
4SRUSalempur Junction (2)  07:13+3607:15+362m--1-497.46371mNERSalempur, Uttar Pradesh
5LRDLar Road (2)  07:24+3907:26+392m--1-487.95674mNERDeoria, Uttar Pradesh
6BLTRBelthara Road (2)  07:40+4107:42+422m--1-474.84870mNERBelthara, Uttar Pradesh
7IAAIndara Junction (3)X  08:16+3508:18+362m--1-447.83974mNERMau, Uttar Pradesh
8MAUMau Junction (4)  08:30+3608:35+365m--1-439.95775mNERMau., Uttar Pradesh
9DLRDullahapurX  08:57+3708:59+392m--1-418.93679mNERDullahapur, Uttar Pradesh
10JKNJakhanian  09:13+3409:15+342m--1-410.55782mNERState Highway 67, Uttar Pradesh
11ARJAunrihar Junction (4)  09:45+3109:47+332m--1-382.04080mNERGhazipur, Uttar Pradesh
12BCYVaranasi City (3)X  10:35+2110:37+232m--1-350.1777mNERVaranasi, Uttar Pradesh
13BSBVaranasi Junction (9)  11:05+2011:15+2110m41-346.83782mNRVaranasi 221002, Uttar Pradesh
14CHHChaukhandiX  11:41+3011:43+322m--1-331.06784mNR221405, Uttar Pradesh
15SWPRSewapuri (2)  11:49+3611:51+382m11-324.34687mNRState Highway 87, Uttar Pradesh
16KEHKapseti (2)  11:58+4212:00+452m--1-319.05685mNRState Highway 87, Uttar Pradesh
17PRFParsipur (2)X  12:09+4812:11+542m--1-310.67187mNRSant Ravidas Nagar, Uttar Pradesh
18BOYBhadohi (2)  12:18+5912:20+1:012m--1-302.44990mNRUttar Pradesh 221401, Uttar Pradesh
19MOFMondh (2)  12:30+1:0212:32+1:022m21-294.25491mNRUttar Pradesh 221406, Uttar Pradesh
20SAWSuriawan (2)  12:40+1:0512:42+1:072m--1-287.07590mNR221404, Uttar Pradesh
21SQNSarai Kansrai (2)XO  12:50+1:1412:52+1:162m--1-276.9592mNRGopalaha Marg, Uttar Pradesh
22JNHJanghai Junction (3)X  13:49+3013:51+332m--1-271.92492mNRUttar Pradesh 212401, Uttar Pradesh
23URPRUgrasenpur (2)  14:23+2014:25+222m11-259.36396mNRJanghai, Uttar Pradesh
24PLPPhulpur (3)  14:35+2414:37+242m--1-248.94993mNRDistrict - Allahabad 212402, Uttar Pradesh
25SYCSarai Chandi  14:50+2414:52+242m--1-238.42895mNR221507, Uttar Pradesh
26PFMPhaphamau Junction (3)X  15:20+1215:22+142m--1-225.32799mNRAllahabad, Uttar Pradesh
27PRGPrayag Junction (3)  15:36+1015:38+152m--1-219.01796mNRAllahabad, Uttar Pradesh
28ALDAllahabad Junction (10)XO16:00+2416:30+3130m81-212.624100mNCRAllahabad 211003, Uttar Pradesh
29NYNNaini Junction (4)  16:48+4216:50+452m31-205.57198mNCRAllahabad, Uttar Pradesh
30JSRJasra (2)  17:03+5217:05+522m--1-190.17097mNCRJasra, Uttar Pradesh
31SRJShankargarh (3)  17:24+5317:26+542m--1-168.178132mNCRShankargarh, Uttar Pradesh
32DBRDabhaura (2)X  17:51+5517:53+552m--1-135.640201mNCRDabhaura, Uttar Pradesh
33MKPManikpur Junction (4)X  18:27+3918:32+395m--1-113.182250mNCRManikpur, Uttar Pradesh
34JTWJaitwar (2)X  19:14+5319:16+552m--1-55.535321mWCRJaitwar, Madhya Pradesh
35STASatna Junction (3)X  19:50+4520:00+4510m11-35.492322mWCRSatna, Madhya Pradesh
36MYR»Maihar (3)»X  20:23+5120:25+512m--10.084353mWCRMaihar Railway Station, Madhya Pradesh
37KTEKatni Junction (6)X  21:10+1:0921:15+1:115m--162.983387mWCRKatni, Madhya Pradesh
38SHRSihora Road (2)X  21:53+1:1721:55+1:182m--1115.224388mWCRJabalpur, Madhya Pradesh
39JBPJabalpur Junction (4)X  23:30+4423:40+5010m11153.635416mWCRJabalpur, Madhya Pradesh
40MMLMadan Mahal (3)  23:46+4823:48+472m11157.185428mWCRJabalpur, Madhya Pradesh
41SRIDShridham (3)  00:23+5500:25+562m32206.849373mWCRShridham, Madhya Pradesh
42NUNarsinghpur (2)X  01:03+5101:05+532m22237.876365mWCRNarsimhapur, Madhya Pradesh
43KYKareli (2)  01:18+5301:20+552m22254.284361mWCRKareli, Madhya Pradesh
44GARGadarwara (2)X  01:40+5701:42+1:002m22282.278352mWCRNarsinghpur, Madhya Pradesh
45PPIPipariya (3)  02:20+1:0202:22+1:042m22331.666338mWCRPiparia, Madhya Pradesh
46SGPSohagpur (2)XO  02:38+1:0302:40+1:032m--2349.330340mWCRSohagpur, Madhya Pradesh
47ETItarsi Junction (7)  04:20+3704:30+5910m32398.884329mWCRItarsi 461111, Madhya Pradesh
48BPFBanapura (2)  04:54+1:0904:56+1:102m22432.277314mWCRBanapura, Madhya Pradesh
49TBNTimarni (2)  05:18+1:1005:20+1:102m12460.561308mWCRTimarni, Madhya Pradesh
50HDHarda (3)  05:34+1:0905:36+1:092m22474.676289mWCRHarda, Madhya Pradesh
51KKNKhirkiya (2)  06:01+1:0506:03+1:052m12506.172281mWCRSH 15, Madhya Pradesh
52BRUDBarud (2)  06:20+1:0406:22+1:072m--2526.668273mWCRKhandwa, Madhya Pradesh
53CAERChhanera (2)X  06:31+1:0606:33+1:062m22536.861283mWCRChhanera, Madhya Pradesh
54TLVTalvadiya (2)XO  07:02+1:0707:04+1:082m12566.513308mWCRKhandwa, Madhya Pradesh
55KNWKhandwa Junction (5)X  08:15+2308:20+235m22582.278310mCRKhandwa, Madhya Pradesh
56NPNRNepanagar (2)  08:53+2608:55+262m12624.887289mCRState Highway 27, Madhya Pradesh
57BAUBurhanpur (2)  09:13+3309:15+342m12651.181269mCRBurhanpur, Madhya Pradesh
58RVRaver (2)  09:30+3409:32+352m12671.362242mCRJalgaon, Maharashtra
59BSLBhusaval Junction (8)XO10:05+3317:50-465m42705.659208mCRBhusaval 425201, Maharashtra
60YLYeola (2)XO  21:28-21:30-2m12918.346553mCRYeola, Maharashtra
61KPGKopargaon (2)  21:48-21:50-2m22932.034508mCRKopargaon 423601, Maharashtra
62PBPuntamba Junction (2)XO  22:33-22:35-2m22956.337501mCRPuntamba, Maharashtra
63BAPBelapur (2)  23:08-23:10-2m22976.646541mCRShrirampur, Maharashtra
64ANGAhmadnagar (2)X  00:37-00:42-5m131043.741650mCRAhmednagar 414001, Maharashtra
65DDDaund Junction (7)XO02:45-03:00-15m231127.946521mCRNew Daund Dist. Pune 413801, Maharashtra
66KDGKedgaon (2)  03:28-03:30-2m131149.484544mCRDist. Pune 412203, Maharashtra
67URIUruli (2)XO  03:48-03:50-2m131174.738553mCRDist. Pune 412202, Maharashtra
68PUNEPune Junction (6)O04:35-04:50-15m331203.428556mCRPune 411001, Maharashtra
69GPRGhorpuri (2)  04:55-04:57-2m131205.766558mCRPune, Maharashtra
70JJRJejuri (1)X  05:48-05:50-2m131261.642697mCRDist. Pune 412303, Maharashtra
71NIRANira (1)O  06:28-06:30-2m131288.257553mCRDist. Pune 412102, Maharashtra
72LNNLonandX  06:38-06:40-2m131295.850594mCRJn Point Daund /Miraj /Pune, Maharashtra
73WTRWathar  07:13-07:15-2m131323.285799mCRSatara, Maharashtra
74JSVJarandeshwar  07:28-07:30-2m131341.515678mCRSH 61, Maharashtra
75STRSatara (3)O  08:00-08:03-3m231349.271637mCRSatara, Maharashtra
76KRGKoregaonO  08:12-08:14-2m131359.956658mCRKoregaon, Maharashtra
77RMPRahimatpurXO  08:25-08:27-2m131370.260626mCRSatara, Maharashtra
78TAZTargaonO  08:38-08:40-2m131381.270617mCRSatara, Maharashtra
79MSRMasurO  08:51-08:53-2m131394.036610mCRSatara, Maharashtra
80KRDKarad (3)O  09:16-09:18-2m131407.885597mCRDist- Satara., Maharashtra
81BVNRBhavani NagarO  09:33-09:35-2m131429.174578mCRTasgaon Rd, Maharashtra
82TKRTakariO  09:40-09:42-2m131435.233558mCRSangli, Maharashtra
83KOVKirloskarvadiX  09:56-09:58-2m131442.855570mCRSangli, Maharashtra
84BVQBhilavdi  10:13-10:15-2m131456.731570mCRSangli, Maharashtra
85SLISangli (3)  10:52-10:55-3m231475.722559mCRSangli, Maharashtra
86MRJMiraj Junction (6)O  11:15-11:20-5m331483.065554mCRMiraj 416410, Maharashtra
87JSPJayasingpurX  11:31-11:33-2m131494.958550mCRJaysingpur, Maharashtra
88HTKHatkanagale (2)XO  11:48-11:50-2m131509.456591mCRDist. Kolhapur 416115, Maharashtra
89RKDRukadi (1)O  11:58-12:00-2m231516.950544mCRKolhapur, Maharashtra
90VVValivade  12:08-12:10-2m131523.511554mCRValivade, Maharashtra
91KOP•Kolhapur CSMT (3)•  12:45--331530.1-563mCRKolhapur 416001, Maharashtra
Scroll to Top
Scroll to Bottom